Starlink 11108

operational
NORAD ID: 59712 Int'l Des: 2024-088 Owner: SPXS Country: US Constellation: starlink
LEOCIRCULAR

About Starlink 11108

Description loading...

Live Position

Loading 3D Globe...

Upcoming Passes

Altitude History

Altitude vs Time

uPlot chart will show altitude changes over time

Two-Line Element Set

1 59712U 24088E 26034.64737661 .00001322 00000-0 15772-4 0 9995
2 59712 53.1585 134.2282 0001267 52.2373 307.8759 15.69706108100927
Epoch: Feb 3, 2026 • Age: 19 hours

Current Status

Altitude 360.7 km
Velocity 7.69 km/s
Sub-Earth Point 3.00°N, 14.15°E
Launch Date May 10, 2024
Age 1.7 years
Type internet

Technical Details

Classification Payload
Mass 960.00 kg
Dry Mass 910.00 kg
Total Mass 960.00 kg
Length 0.30 m
Diameter 4.10 m
Span 29.00 m
Shape Box + pan
Manufacturer SPXS
Bus Type Starlink V2MD
Phase Status In Orbit
Owner/State SPXS/US

Large Constellations

Loading constellations...